Theta_e
318 318 318 318 318 318 319 318 317 316 316 316 316 316 315 315 315 315 316 316 316 315 315 316 316 318 313 306 305 320 325 322 317 314 309 305 303 301 298 298 298 297 298 299 301 301 300
318 318 318 319 319 319 319 318 317 316 316 315 315 315 315 315 315 316 316 316 316 315 315 315 317 319 307 300 310 321 316 315 314 312 309 306 304 303 300 298 297 298 299 299 300 300 299
319 320 320 319 319 319 317 317 317 316 317 317 315 315 316 315 315 316 316 315 314 314 314 315 318 315 305 303 310 319 315 311 312 311 307 307 306 303 302 298 300 299 295 297 297 299 299
320 319 319 319 319 318 317 316 316 316 317 317 316 315 316 315 315 316 316 315 315 314 315 316 318 311 304 308 312 313 315 312 313 312 311 310 307 304 301 301 298 295 295 291 297 298 300
319 319 319 319 318 317 316 315 315 316 316 317 316 315 315 315 315 315 314 315 317 317 317 318 312 309 302 315 307 309 312 308 307 306 307 307 305 300 299 295 293 293 288 290 293 298 298
318 318 318 318 317 315 315 315 314 315 316 316 315 315 315 314 315 314 312 314 317 316 316 315 311 303 304 301 306 308 309 310 304 304 303 302 300 297 297 293 286 289 289 291 291 296 298
316 316 316 315 315 314 314 314 314 315 315 315 315 315 314 314 314 313 306 304 303 304 304 300 300 301 302 305 308 306 307 305 304 302 296 297 294 292 294 295 294 292 291 291 295 299 296
315 314 314 314 314 313 313 313 313 314 315 315 314 315 314 313 313 312 306 301 300 301 299 302 302 301 303 303 300 305 309 300 298 295 295 294 291 296 295 294 293 292 292 292 295 298 297
315 314 314 313 313 312 313 313 313 313 314 313 313 313 314 312 312 309 305 304 306 302 300 298 300 301 301 302 299 301 305 301 296 293 293 291 294 295 294 293 293 294 292 292 292 295 297
313 313 312 312 311 311 312 312 312 313 313 313 312 312 312 310 307 306 303 305 308 306 293 292 296 299 303 301 296 305 306 301 296 293 294 294 295 296 296 294 295 290 296 294 293 291 287
311 311 310 310 310 310 310 310 311 312 312 312 312 313 312 309 307 304 305 307 306 306 285 294 296 305 302 298 299 301 307 303 295 296 296 292 295 294 293 294 297 293 296 294 293 291 291
310 309 309 309 309 308 308 308 309 310 311 311 312 312 310 308 306 306 308 306 307 293 283 290 296 295 296 297 298 301 301 306 303 297 297 296 300 297 296 297 296 297 294 294 293 290 284
308 308 308 308 307 307 307 307 308 309 310 311 311 310 308 307 303 308 306 306 293 285 292 290 291 294 294 293 294 297 295 295 293 289 289 293 293 297 298 294 297 295 291 285 284 284 284
307 307 307 308 307 307 306 307 307 308 310 310 310 307 307 308 307 305 303 296 286 287 289 294 293 294 291 293 292 295 293 291 297 294 290 287 286 293 297 294 291 292 290 285 278 281 284
307 307 306 307 306 306 306 306 307 308 309 309 306 307 309 309 304 303 301 290 288 290 292 291 293 289 290 292 292 293 291 291 296 296 289 287 286 296 296 297 295 290 287 292 286 288 282
307 307 307 307 306 306 306 306 307 309 309 309 302 303 307 309 305 305 297 289 291 293 295 294 288 291 287 289 289 290 290 294 295 298 298 292 285 293 295 297 297 294 295 287 288 279 279
306 306 307 307 306 306 306 307 308 309 309 306 304 302 308 308 308 301 292 291 293 298 298 293 291 290 291 289 290 289 290 294 297 297 299 296 290 289 294 291 290 291 289 290 289 287 281
305 305 306 306 306 306 306 307 308 308 307 303 302 298 309 307 298 294 292 292 295 297 298 296 296 294 292 290 289 289 290 294 299 299 293 296 292 285 289 296 297 295 291 291 285 284 286
304 304 305 305 304 306 306 306 307 308 307 301 299 299 308 307 294 294 295 294 295 295 295 293 292 294 294 290 288 290 292 297 298 296 294 296 289 283 287 292 295 292 292 292 291 289 283
303 304 304 304 304 305 305 305 307 308 308 303 301 295 300 300 297 295 293 293 292 297 294 295 293 294 291 289 292 290 291 294 298 297 300 298 289 286 283 288 292 289 291 292 290 284 286
303 303 303 303 303 304 305 305 308 307 307 304 301 295 296 292 294 295 294 292 291 291 296 296 292 292 290 285 289 289 291 292 294 297 298 297 288 290 290 291 292 291 291 291 289 290 284
302 302 302 303 303 303 303 305 307 307 306 303 297 296 298 295 294 292 292 292 291 293 294 293 291 294 293 289 290 287 291 291 290 294 295 296 287 290 287 292 292 289 292 292 291 290 288
302 302 302 302 302 303 303 304 306 306 307 301 301 300 297 293 293 292 293 293 293 295 296 297 294 294 292 293 296 297 297 296 295 293 292 291 288 286 284 290 289 285 287 287 287 288 287
302 302 302 301 302 302 303 303 304 305 307 303 300 300 294 289 292 292 293 294 292 294 292 296 297 294 295 300 299 298 296 295 295 295 296 291 288 287 284 287 280 288 291 290 288 288 290
301 302 302 302 302 302 302 303 303 304 306 303 304 300 296 288 291 291 293 294 295 295 294 294 296 297 300 297 292 290 291 291 294 296 295 294 289 285 283 282 287 289 288 286 284 285 290
301 301 301 302 302 302 302 303 303 303 305 305 305 303 298 291 290 294 293 293 291 291 292 294 298 299 298 293 290 284 284 287 287 289 297 295 293 286 285 281 279 287 290 293 291 280 289
301 302 302 301 302 302 302 302 303 304 304 304 304 303 298 292 295 296 293 292 294 292 289 293 294 294 295 292 288 286 285 289 284 283 285 287 286 283 283 282 286 291 292 293 281 285 291
300 301 302 301 301 301 302 302 303 303 304 304 300 304 300 293 294 296 296 292 293 293 289 293 291 291 292 288 287 288 285 289 285 288 285 285 284 285 285 281 279 294 291 284 290 291 291
299 299 301 301 301 301 302 302 303 303 304 304 298 304 304 295 295 301 300 301 299 298 295 294 292 290 294 290 290 290 286 287 286 281 291 284 287 286 286 287 298 297 293 294 295 291 291
Wind_Speed
22 23 24 24 21 23 24 24 26 26 25 25 23 20 17 16 15 13 13 12 10 10 10 10 9 9 3 6 6 2 5 3 2 3 7 4 9 2 4 1 0 2 1 3 7 10 8
22 23 22 19 22 22 24 25 26 27 26 28 26 23 20 16 14 14 12 11 10 8 5 6 8 9 2 16 3 1 3 3 5 4 2 2 2 2 3 0 2 3 5 9 8 9 5
19 18 20 21 22 23 25 25 25 26 24 26 28 25 22 20 18 15 10 9 7 5 3 3 4 1 7 5 2 2 1 0 1 1 1 2 2 3 3 2 2 3 6 6 3 4 5
19 20 20 21 21 23 25 26 26 27 24 25 27 25 23 22 19 17 16 10 5 5 2 1 2 1 6 1 1 1 2 3 2 2 2 3 2 2 2 1 2 4 2 6 4 8 5
20 20 20 21 21 22 24 26 26 24 26 26 25 26 22 21 18 17 13 8 8 8 5 0 0 3 5 3 4 4 2 2 2 1 1 1 2 3 1 5 3 3 9 14 9 8 7
23 23 23 23 23 24 24 24 26 27 28 27 28 27 23 20 17 14 5 3 5 1 1 2 2 1 7 8 5 7 1 2 1 2 1 4 3 4 3 8 8 15 15 12 17 12 18
24 24 25 25 25 26 26 26 26 26 28 28 28 25 23 20 18 10 3 1 3 3 9 5 3 3 2 9 2 10 6 2 1 1 6 3 7 10 13 8 7 10 12 17 17 15 17
22 25 25 26 27 26 26 27 27 28 27 27 28 27 23 19 16 11 2 5 1 2 5 3 1 1 2 4 4 14 11 3 2 7 0 4 10 12 5 5 6 8 14 18 16 12 14
22 23 24 25 26 27 27 27 28 29 27 29 28 27 25 21 15 3 3 4 4 5 1 4 4 6 5 5 4 10 12 4 3 4 3 5 9 4 7 7 8 11 15 18 22 16 13
23 24 24 25 26 27 28 28 29 29 30 28 28 27 24 24 2 2 2 3 6 4 2 9 7 6 8 4 2 4 8 3 2 5 5 6 4 2 6 10 9 18 12 9 15 15 9
23 24 25 25 26 27 28 29 29 29 29 31 30 28 20 11 1 2 6 9 2 3 0 8 4 4 7 8 8 3 7 3 3 6 3 3 8 10 13 10 8 7 8 9 14 19 20
23 24 25 25 26 27 29 29 29 29 30 31 31 27 20 1 0 2 8 3 1 1 2 1 3 6 7 7 6 5 6 5 1 3 2 8 8 5 3 5 3 7 9 19 12 8 7
23 24 25 25 26 27 28 30 30 31 31 32 32 26 8 2 6 8 3 0 1 2 1 4 4 5 5 8 5 7 8 7 6 5 8 10 3 0 2 6 7 7 13 6 4 4 6
22 23 23 23 25 26 27 29 31 31 33 34 31 17 2 1 7 2 1 2 3 0 2 1 3 6 3 9 4 8 8 6 2 2 4 7 3 4 2 6 9 16 5 5 7 6 15
20 21 23 24 25 25 26 28 30 32 34 34 23 3 2 9 5 1 2 5 2 2 2 3 4 2 2 4 5 7 6 3 1 2 6 6 6 12 15 10 4 2 6 2 9 13 10
19 21 22 23 24 25 26 28 28 30 32 30 5 3 5 15 4 3 5 3 1 2 3 1 2 1 4 6 4 7 4 2 2 7 2 3 11 6 3 5 11 13 3 5 3 6 10
19 20 21 21 22 23 26 26 28 29 30 24 3 2 6 13 1 6 5 2 2 3 3 3 2 3 4 4 4 4 4 3 5 3 7 5 5 5 12 5 6 4 5 7 4 5 8
19 20 21 23 22 24 24 25 26 27 28 7 4 2 7 9 6 3 2 4 4 3 3 3 1 2 3 4 5 5 5 5 4 2 9 5 5 10 19 22 15 15 15 13 6 8 8
18 19 21 22 23 23 25 25 26 26 24 5 4 3 5 5 4 3 3 2 2 4 3 3 3 3 2 1 5 6 6 4 6 5 3 2 4 7 8 4 4 4 6 10 14 12 18
17 19 20 22 23 23 24 25 26 26 25 1 2 4 4 6 3 3 4 2 4 4 1 4 3 2 3 4 4 10 12 7 2 8 19 12 6 12 12 16 14 20 22 20 14 7 19
17 18 20 21 22 23 23 24 26 29 27 2 4 3 2 5 3 5 1 1 2 5 4 4 1 2 3 4 14 6 7 10 12 13 4 5 7 12 18 23 25 27 26 24 21 21 16
14 16 18 19 21 22 23 23 25 29 25 5 4 4 2 3 3 3 1 2 0 3 3 4 4 9 10 8 11 18 17 12 9 3 2 1 5 8 18 22 22 25 23 22 21 17 16
14 15 16 18 19 20 21 20 22 24 17 4 3 1 2 2 4 3 2 1 2 12 5 10 9 16 13 12 9 17 19 20 19 14 8 3 3 3 11 9 18 17 4 3 7 11 15
14 15 15 15 17 18 19 20 20 20 17 2 2 3 3 3 3 4 6 12 13 4 12 15 14 9 4 13 19 14 12 12 11 14 15 5 2 3 8 11 6 3 3 2 14 19 19
13 14 14 15 15 16 17 18 18 17 17 4 2 3 3 5 5 13 4 3 7 13 7 13 12 4 8 9 6 8 2 4 3 3 9 14 3 5 4 6 17 8 4 3 6 28 8
12 13 14 14 15 16 16 16 16 15 14 5 2 0 1 5 3 5 6 11 8 6 7 4 5 4 2 3 3 3 3 3 2 3 3 6 11 4 3 6 7 2 2 8 8 11 4
11 12 14 14 15 16 16 16 16 15 14 5 3 1 1 4 6 3 5 5 5 7 7 12 5 6 1 2 3 3 3 1 4 3 2 4 3 8 9 8 10 3 5 6 6 9 19
12 12 13 14 15 16 16 16 16 15 13 5 5 6 5 4 14 19 19 17 12 7 5 4 8 3 2 4 3 0 3 1 3 4 4 3 2 3 4 5 8 2 1 3 7 16 16
11 13 13 14 15 15 16 17 17 16 15 10 3 3 3 5 11 17 21 21 22 24 14 9 8 1 3 1 2 2 3 3 4 6 3 6 7 2 7 7 9 6 9 8 12 16 13
Wind_Direction
20 18 16 12 355 352 352 357 1 1 1 1 2 1 355 345 338 332 327 322 323 325 331 335 327 324 243 93 70 94 123 68 34 19 41 52 53 99 103 73 92 192 19 259 298 281 273
20 17 13 360 354 352 354 358 0 1 358 360 359 354 352 346 336 329 322 308 304 308 307 312 320 321 29 89 338 334 84 30 32 20 10 41 69 81 104 262 290 180 267 291 288 302 261
10 5 359 356 353 354 358 359 359 360 356 354 358 353 345 344 340 335 331 323 306 289 290 312 321 332 82 88 306 213 217 272 193 3 358 76 151 222 179 252 179 265 280 307 168 349 287
1 358 355 354 352 355 359 359 359 359 356 355 357 350 345 341 345 340 339 351 99 138 164 270 317 292 85 173 185 266 220 263 233 267 251 309 204 101 333 107 235 284 188 335 332 316 327
1 358 356 354 354 358 359 358 358 354 358 356 355 351 345 342 347 342 341 15 77 98 107 296 213 2 56 314 12 349 244 315 326 127 255 77 67 53 147 338 326 45 324 321 327 305 307
4 2 359 357 357 359 358 356 356 356 354 356 355 351 346 342 346 350 29 29 85 37 49 212 146 107 26 342 319 327 56 278 16 308 304 39 40 320 322 340 331 313 318 310 311 323 310
7 4 2 360 358 356 356 355 355 354 352 352 353 348 345 341 337 354 321 310 354 39 32 40 84 66 334 333 332 15 352 319 332 17 298 16 299 297 308 302 288 295 293 298 302 310 296
7 5 3 1 358 356 354 354 353 352 351 348 349 346 344 337 329 326 214 75 64 324 77 22 35 357 248 337 10 16 1 7 332 288 113 261 278 291 302 272 263 267 290 297 303 319 307
2 360 360 359 358 355 355 353 352 349 348 348 346 344 340 335 320 11 24 86 346 165 110 42 34 27 354 335 48 12 3 324 266 264 281 274 290 287 267 269 267 274 285 299 302 314 292
4 2 1 360 359 356 354 353 352 350 347 344 344 344 340 329 104 340 77 348 320 214 92 0 358 32 348 2 141 352 12 325 270 310 330 288 341 335 295 285 286 289 304 297 299 319 306
5 3 1 0 359 356 354 352 350 350 345 343 341 341 344 351 341 24 342 329 165 214 179 356 10 341 355 38 309 23 12 3 334 321 291 296 310 309 302 300 301 296 327 305 294 284 295
4 3 2 1 0 357 353 350 349 348 345 341 338 338 339 123 1 355 332 311 264 181 76 29 345 359 359 352 7 310 2 359 315 330 315 291 310 278 266 310 323 330 320 299 290 283 253
5 3 3 1 1 359 354 350 348 346 345 340 334 330 325 294 324 327 320 202 213 52 333 3 348 349 345 335 340 357 350 19 21 352 357 321 311 306 2 318 317 333 335 305 269 213 272
5 3 1 0 0 359 357 352 348 346 344 338 330 322 194 229 321 271 126 110 81 266 309 326 327 324 330 358 339 334 338 354 50 21 319 345 314 9 81 328 293 304 264 275 290 291 300
3 1 1 0 360 359 358 355 351 346 343 338 325 336 22 349 348 211 106 62 92 190 315 301 320 338 326 339 327 332 327 292 271 226 12 321 260 302 300 297 212 90 227 344 279 267 278
2 2 2 1 360 359 359 358 352 347 341 340 332 327 14 339 355 67 71 107 138 250 343 245 303 259 315 333 328 335 317 203 249 215 226 313 295 300 344 288 261 239 356 256 218 290 292
3 3 1 1 357 357 359 358 354 348 342 335 358 32 347 346 40 52 73 55 314 308 301 215 249 286 261 324 305 299 267 247 219 227 222 305 256 274 317 231 272 189 230 226 301 265 279
4 3 0 359 358 356 357 356 353 352 346 35 342 46 346 333 51 34 64 331 319 329 1 351 300 250 282 347 288 275 253 238 183 288 292 273 289 283 282 283 273 253 260 251 249 245 234
5 3 2 1 359 358 358 354 353 352 4 321 17 309 336 338 68 39 336 319 291 343 343 6 323 59 25 326 316 250 259 287 308 272 302 353 247 300 297 172 113 217 206 235 260 271 263
6 4 4 2 0 359 357 357 350 350 356 349 352 357 8 40 35 61 2 357 322 337 268 347 285 102 355 314 268 283 273 294 12 287 292 277 209 229 254 280 304 282 275 274 264 258 286
7 6 5 3 3 3 0 0 352 351 349 304 13 62 25 349 17 339 270 289 303 354 345 328 212 133 29 275 308 263 254 292 294 287 243 224 253 247 256 270 275 274 277 281 274 270 271
2 6 4 2 3 5 4 1 360 355 346 66 8 360 4 303 298 282 221 212 198 2 291 285 256 325 306 260 246 284 290 298 272 290 260 149 272 268 270 274 271 274 269 271 273 280 281
1 2 0 0 1 3 4 6 5 4 359 34 31 82 314 344 322 283 207 144 193 334 258 251 317 312 298 289 287 273 270 271 257 259 267 245 252 271 279 309 302 276 228 201 293 274 278
357 360 357 1 1 1 3 7 9 8 16 331 18 314 326 287 273 279 297 302 294 255 286 283 290 275 279 314 295 268 257 252 242 241 225 232 210 248 289 315 264 94 124 292 284 281 283
351 349 353 355 1 357 1 3 6 4 359 3 347 329 333 289 280 292 308 249 292 303 271 287 293 250 315 310 300 310 221 197 193 204 199 216 232 276 279 281 277 235 209 297 325 307 313
339 349 348 352 356 356 356 357 359 1 352 341 294 246 314 307 251 287 310 301 292 309 294 253 297 319 294 267 262 275 293 326 300 322 164 193 231 238 285 279 280 85 171 308 309 274 159
332 342 347 348 350 350 350 348 353 351 348 343 290 234 224 270 276 248 238 309 295 285 285 291 337 297 342 236 248 241 261 277 267 272 238 261 244 244 258 260 267 130 344 314 277 335 323
324 329 339 347 344 343 342 342 346 343 340 336 283 262 251 239 279 268 270 264 263 243 241 347 334 165 231 226 246 286 264 320 286 256 243 250 250 248 249 253 268 123 72 253 296 302 300
319 322 328 339 338 337 335 338 337 336 330 321 261 250 212 240 271 287 273 259 254 258 270 247 241 328 261 228 212 312 251 261 252 275 215 247 209 222 222 254 296 314 272 264 283 300 307